星链-33681 (STARLINK-33681)

导读

STARLINK-33681是美国SpaceX星链星座的卫星,于2025年4月4日发射。星链是美国打造的低轨卫星互联网星座,旨在为全球提供高速互联网接入服务。该卫星加入星座后,进一步扩充星链网络规模,提升覆盖与服务能力,推动低轨卫星互联网部署进程。

基本信息
目录编号:
63438
目录名称:
STARLINK-33681
国际标识:
2025-069F
轨道中心:
EARTH
卫星名称:
星链-33681
卫星全名:
星链-33681 (STARLINK-33681)
卫星状态:
在轨 (已飞行436 天)
发射日期:
2025-04-04 UTC
国别 :
美国 (US)
星等 :
--
轨道信息
数据来源 国际轨道数据
星历时间: 2026-06-14T04:13:13+0800
9小时前
查看轨道信息
半长轴: 6796.781km
偏心率: 0.0001682
轨道倾角: 53.161°
近地点辐角 136.386°
升交点赤经 51.066°
平近点角 223.728°
近地点: 417.5km
远地点: 419.788km
周期: 92.943分钟
每日圈数: 15.49344
详细信息
固有亮度:
5
最大亮度:
2.5
卫星平台:
Starlink V1.0
覆盖范围:
全球
运营商:
太空探索技术公司
运营商所在国:
美国
制造商(研发单位):
太空探索技术公司
制造商所在国:
美国
使用方式:
暂无
卫星简介
Starlink 计划是 SpaceX 推出的全球卫星互联网项目,通过发射低轨道卫星,为全球尤其是偏远地区提供高速、低延迟的互联网服务。自 2019 年起,Starlink 已部署数千颗卫星,旨在缩小全球数字鸿沟,推动互联网普及。该项目还为军事、航空等行业提供通信支持,带来广泛经济效益。
2D轨道图
3D轨道图
轨道高度分析图
轨道倾角分析图
轨道综合分析图
查看轨道综合分析图